Tracking 19638 objects as of 21-Apr-2019
HD Live streaming from Space Station
objects crossing your sky now

CZ-4 DEB

Track CZ-4 DEB now!
10-day predictions


NORAD ID: 26202
Int'l Code: 1999-057CQ
Perigee: 706.2 km
Apogee: 866.8 km
Inclination: 98.6 °
Period: 100.4 minutes
Semi major axis: 7157 km
RCS: 0.0112 m2 (small)
Launch date: October 14, 1999
Source: People's Republic of China (PRC)
Launch site: Taiyaun Space Center, China (TSC)

Note: This is SATELLITE DEBRIS
aabbcc
Your satellite tracking list
Your tracking list is empty




NASA's NSSDC Master Catalog

Two Line Element Set (TLE):
1 26202U 99057CQ  19111.43241604  .00000085  00000-0  43545-4 0  9997
2 26202  98.6286  48.8909 0112196 129.3932 354.2313 14.33701640996813
Source of the keplerian elements: AFSPC